Weather History for Morrisville, VT

Change the Weather History Date:

Friday, September 7, 2012

  Actual Average Record
Temperature  
Mean Temperature 70 °F 61 °F  
Max Temperature 82 °F 73 °F 90 °F (2007)
Min Temperature 58 °F 49 °F 34 °F (2000)
Degree Days  
Heating Degree Days 0 5  
Month to date heating degree days 8 31  
Since 1 July heating degree days 50 126  
Cooling Degree Days 5 1  
Month to date cooling degree days 17 7  
Year to date cooling degree days 401 254  
Growing Degree Days 20 (Base 50)    
Moisture  
Dew Point 58 °F    
Average Humidity 69    
Maximum Humidity 100    
Minimum Humidity 37    
Precipitation  
Precipitation 0.00 in 0.10 in 0.25 in (2011)
Month to date precipitation 1.83 0.67  
Year to date precipitation 12.05 24.43  
Sea Level Pressure  
Sea Level Pressure 29.91 in    
Wind  
Wind Speed 1 mph (SSE)    
Max Wind Speed 10 mph    
Max Gust Speed 17 mph    
Visibility 6 miles    
Events Fog    
T = Trace of Precipitation, MM = Missing Value Source: NWS Daily Summary

Daily Weather History Graph

Daily Weather History Graph

Search for Another Location

Airport:

Trip Planner

Search our weather history database for the weather conditions in past years. The results will help you decide how hot, cold, wet, or windy it might be!

Date:

Astronomy

Sep. 07, 2012 Rise Set
Actual Time 6:20 AM EDT 7:15 PM EDT
Civil Twilight 5:50 AM EDT 7:44 PM EDT
Nautical Twilight 5:15 AM EDT 8:19 PM EDT
Astronomical Twilight 4:38 AM EDT 8:56 PM EDT
Moon 10:51 PM EDT (9/7) 1:27 PM EDT (9/7)
Length of Visible Light 13h 53m
Length of Day
12h 54m
Waning Gibbous, 58% of the Moon is Illuminated
Sep 7
Waning Gibbous
Sep 8
Last Quarter
Sep 15
New
Sep 22
First Quarter
Sep 29
Full

Hourly Weather History & Observations

Time (EDT) Temp. Heat Index Dew Point Humidity Pressure Visibility Wind Dir Wind Speed Gust Speed Precip Events Conditions
12:54 AM 64.0 °F - 62.1 °F 93% 29.88 in 10.0 mi South 3.5 mph - N/A   Mostly Cloudy
1:54 AM 63.0 °F - 61.0 °F 93% 29.89 in 8.0 mi Calm Calm - N/A   Clear
2:54 AM 62.1 °F - 60.1 °F 93% 29.89 in 6.0 mi Calm Calm - N/A   Clear
3:05 AM 60.8 °F - 59.0 °F 94% 29.90 in 5.0 mi Calm Calm - N/A   Partly Cloudy
3:11 AM 60.8 °F - 59.0 °F 94% 29.89 in 1.5 mi Calm Calm - N/A   Scattered Clouds
3:21 AM 60.8 °F - 59.0 °F 94% 29.89 in 3.0 mi Calm Calm - N/A   Partly Cloudy
3:33 AM 60.8 °F - 57.2 °F 88% 29.89 in 1.5 mi Calm Calm - N/A   Partly Cloudy
3:35 AM 60.8 °F - 57.2 °F 88% 29.89 in 0.8 mi Calm Calm - N/A   Mist
3:54 AM 60.1 °F - 57.9 °F 93% 29.88 in 0.8 mi Calm Calm - N/A   Mist
3:57 AM 60.8 °F - 57.2 °F 88% 29.89 in 1.2 mi Calm Calm - N/A   Mostly Cloudy
4:06 AM 60.8 °F - 59.0 °F 94% 29.89 in 0.8 mi Calm Calm - N/A   Mist
4:54 AM 59.0 °F - 57.9 °F 96% 29.91 in 0.2 mi SSE 3.5 mph - N/A Fog Fog
5:54 AM 57.9 °F - 57.0 °F 97% 29.92 in 0.5 mi Calm Calm - N/A Fog Fog
6:54 AM 57.9 °F - 57.0 °F 97% 29.94 in 0.2 mi Calm Calm - N/A Fog Fog
7:54 AM 59.0 °F - 57.9 °F 96% 29.95 in 0.2 mi Calm Calm - N/A Fog Fog
8:54 AM 61.0 °F - 59.0 °F 93% 29.95 in 0.8 mi Calm Calm - N/A   Overcast
9:25 AM 62.6 °F - 60.8 °F 94% 29.95 in 1.2 mi Calm Calm - N/A   Overcast
9:40 AM 62.6 °F - 60.8 °F 94% 29.95 in 3.0 mi NNW 3.5 mph - N/A   Mostly Cloudy
9:51 AM 64.4 °F - 62.6 °F 94% 29.95 in 10.0 mi Calm Calm - N/A   Scattered Clouds
9:54 AM 64.0 °F - 62.1 °F 93% 29.95 in 10.0 mi Calm Calm - N/A   Partly Cloudy
10:54 AM 73.9 °F - 63.0 °F 68% 29.93 in 10.0 mi Calm Calm - N/A   Clear
11:54 AM 77.0 °F - 57.0 °F 50% 29.94 in 10.0 mi SSE 4.6 mph - N/A   Mostly Cloudy
12:54 PM 80.1 °F 79.9 °F 53.1 °F 39% 29.93 in 10.0 mi Variable 4.6 mph - N/A   Partly Cloudy
1:54 PM 81.0 °F 80.5 °F 54.0 °F 39% 29.92 in 10.0 mi Variable 5.8 mph - N/A   Partly Cloudy
2:54 PM 82.0 °F 81.3 °F 54.0 °F 38% 29.91 in 10.0 mi Variable 4.6 mph - N/A   Partly Cloudy
3:54 PM 81.0 °F 80.4 °F 53.1 °F 38% 29.92 in 10.0 mi Variable 4.6 mph - N/A   Clear
4:54 PM 80.1 °F 80.0 °F 54.0 °F 40% 29.89 in 10.0 mi Variable 3.5 mph - N/A   Partly Cloudy
5:54 PM 79.0 °F - 57.0 °F 47% 29.90 in 10.0 mi Calm Calm - N/A   Clear
6:54 PM 70.0 °F - 60.1 °F 71% 29.90 in 10.0 mi Calm Calm - N/A   Clear
7:54 PM 66.9 °F - 60.1 °F 79% 29.91 in 10.0 mi Calm Calm - N/A   Clear
8:54 PM 64.9 °F - 59.0 °F 81% 29.90 in 10.0 mi Calm Calm - N/A   Clear
9:54 PM 63.0 °F - 59.0 °F 87% 29.90 in 10.0 mi Calm Calm - N/A   Clear
10:54 PM 61.0 °F - 57.0 °F 87% 29.88 in 10.0 mi Calm Calm - N/A   Clear
11:54 PM 61.0 °F - 57.9 °F 90% 29.86 in 10.0 mi Calm Calm - N/A   Clear